Weather History for KNXP - July, 2012

Change the Weather History Date:

Saturday, July 21, 2012

  Actual Average Record
Temperature  
Mean Temperature 92 °F -  
Max Temperature 105 °F 99 °F 109 °F (2005)
Min Temperature 81 °F 75 °F 66 °F (2001)
Cooling Degree Days 28    
Growing Degree Days 42 (Base 50)    
Moisture  
Dew Point 47 °F    
Average Humidity 21    
Maximum Humidity 29    
Minimum Humidity 15    
Precipitation  
Precipitation 0.00 in - - ()
Sea Level Pressure  
Sea Level Pressure 29.86 in    
Wind  
Wind Speed 6 mph (WSW)    
Max Wind Speed 14 mph    
Max Gust Speed 18 mph    
Visibility 9 miles    
Events      
Averages and records for this station are not official NWS values.
T = Trace of Precipitation, MM = Missing Value Source: NWS Daily Summary

Daily Weather History Graph

Daily Weather History Graph

Search for Another Location

Airport or City:

Trip Planner

Search our weather history database for the weather conditions in past years. The results will help you decide how hot, cold, wet, or windy it might be!

Date:

Astronomy

Jul. 21, 2012 Rise Set
Actual Time 5:48 AM PDT 7:53 PM PDT
Civil Twilight 5:19 AM PDT 8:21 PM PDT
Nautical Twilight 4:45 AM PDT 8:56 PM PDT
Astronomical Twilight 4:08 AM PDT 9:33 PM PDT
Moon 8:23 AM PDT (7/21) 9:19 PM PDT (7/21)
Length of Visible Light 15h 02m
Length of Day
14h 05m
Waxing Crescent, 7% of the Moon is Illuminated
Jul 21
Waxing Crescent
Jul 26
First Quarter
Aug 1
Full
Aug 9
Last Quarter
Aug 17
New

Hourly Weather History & Observations

Time (PDT) Temp. Dew Point Humidity Pressure Visibility Wind Dir Wind Speed Gust Speed Precip Events Conditions
12:56 AM 87.1 °F 48.0 °F 26% 29.88 in 10.0 mi North 3.5 mph - N/A   Unknown
1:56 AM 86.0 °F 45.0 °F 24% 29.88 in 10.0 mi NW 6.9 mph - N/A   Unknown
2:56 AM 84.9 °F 43.0 °F 23% 29.88 in 10.0 mi West 6.9 mph - N/A   Unknown
3:56 AM 84.0 °F 45.0 °F 25% 29.88 in 10.0 mi WNW 10.4 mph - N/A   Unknown
4:56 AM 82.0 °F 46.0 °F 28% 29.89 in 10.0 mi WNW 11.5 mph - N/A   Unknown
5:56 AM 81.0 °F 46.0 °F 29% 29.91 in 10.0 mi West 12.7 mph - N/A   Unknown
6:56 AM 82.0 °F 46.0 °F 28% 29.92 in 9.0 mi WNW 5.8 mph - N/A   Unknown
7:56 AM 86.0 °F 46.0 °F 25% 29.94 in 10.0 mi NNW 5.8 mph - N/A   Unknown
8:56 AM 90.0 °F 46.0 °F 22% 29.94 in 8.0 mi NW 3.5 mph - N/A   Unknown
9:56 AM 95.0 °F 46.0 °F 19% 29.93 in 10.0 mi Calm Calm - N/A   Unknown
10:56 AM 97.0 °F 44.1 °F 16% 29.92 in 10.0 mi Calm Calm - N/A   Unknown
11:56 AM 99.0 °F 44.1 °F 15% 29.91 in 7.0 mi Variable 3.5 mph - N/A   Partly Cloudy
12:56 PM 100.9 °F 45.0 °F 15% 29.88 in 7.0 mi SSE 8.1 mph - N/A   Scattered Clouds
1:56 PM 102.0 °F 46.9 °F 16% 29.86 in 7.0 mi SE 12.7 mph 18.4 mph N/A   Mostly Cloudy
2:56 PM 102.0 °F 48.0 °F 16% 29.83 in 7.0 mi Calm Calm - N/A   Scattered Clouds
3:56 PM 104.0 °F 48.9 °F 16% 29.80 in 7.0 mi East 6.9 mph - N/A   Scattered Clouds
4:56 PM 104.0 °F 48.9 °F 16% 29.78 in 7.0 mi South 5.8 mph - N/A   Scattered Clouds
5:56 PM 104.0 °F 48.9 °F 16% 29.76 in 10.0 mi ENE 3.5 mph - N/A   Unknown
6:56 PM 102.0 °F 51.1 °F 18% 29.77 in 10.0 mi South 4.6 mph - N/A   Unknown
7:34 PM 100.4 °F 51.8 °F 20% 29.90 in 10.0 mi SW 12.7 mph - N/A   Unknown
7:56 PM 99.0 °F 52.0 °F 21% 29.78 in 10.0 mi SW 12.7 mph - N/A   Unknown
8:56 PM 96.1 °F 48.9 °F 20% 29.80 in 10.0 mi SW 11.5 mph - N/A   Unknown
9:56 PM 93.9 °F 48.9 °F 21% 29.82 in 10.0 mi SSW 4.6 mph - N/A   Unknown
10:56 PM 93.9 °F 50.0 °F 22% 29.83 in 10.0 mi Calm Calm - N/A   Unknown
11:56 PM 91.9 °F 51.1 °F 25% 29.83 in 10.0 mi WSW 13.8 mph - N/A   Unknown